Regional Weather Roundup
Issued by NWS

Home | Current Version | Previous Version | Graphics & Text | Print | Product List | Glossary On
Versions: 1 2 3 4 5 6 7 8 9 10 11 12 13 14 15 16 17 18 19 20 21 22 23 24 25 26 27 28 29 30 31 32 33 34 35 36 37 38 39 40 41 42 43 44 45 46 47 48 49 50
000
ASUS43 KDTX 240810
RWRMI
MICHIGAN HOURLY REGIONAL WEATHER ROUNDUP
NATIONAL WEATHER SERVICE DETROIT/PONTIAC MI
300 AM EST TUE JAN 24 2017

NOTE: "FAIR" INDICATES FEW OR NO CLOUDS BELOW 12,000 FEET WITH NO
SIGNIFICANT WEATHER AND/OR OBSTRUCTION TO VISIBILITY.

MIZ047>049-052>055-059>063-066>070-074>076-081>083-240900-
SOUTHEAST LOWER MICHIGAN

CITY           SKY/WX    TMP DP  RH WIND       PRES   REMARKS
ADRIAN         CLOUDY    39  39 100 N7        29.72R WCI  34
ALMA           LGT RAIN  36  36  99 CALM      29.74R
ANN ARBOR      LGT RAIN  40  40 100 NW3       29.71R FOG
BAD AXE        CLOUDY    34  34 100 CALM      29.74R FOG
CARO           LGT RAIN  36  36  99 CALM      29.72S
DETROIT CITY   CLOUDY    38  36  92 CALM      29.72S
DETROIT        LGT RAIN  40  39  97 E3        29.72S VSB 1/4
FLINT          LGT RAIN  37  36  96 N3        29.72S VSB 3/4
GROSSE ILE     CLOUDY    38  37  97 CALM      29.71S FOG
HILLSDALE      CLOUDY    36  36 100 N5        29.70S FOG     WCI  32
HOWELL         DRIZZLE   36  36  97 CALM      29.71S

CITY           SKY/WX    TMP DP  RH WIND       PRES   REMARKS
JACKSON        LGT RAIN  38  36  92 N3        29.71S FOG
LAMBERTVILLE   LGT RAIN  41  39  93 SE6       29.72R
LANSING        CLOUDY    37  35  92 NW3       29.73S FOG
LAPEER         FOG       36  36 100 CALM      29.73R VSB 1/4
MASON          LGT RAIN  36  36 100 NW3       29.72S
MONROE         RAIN      40  40 100 CALM      29.71S
MT. CLEMENS    CLOUDY    37  37 100 CALM      29.70S
PONTIAC        LGT RAIN  37  35  92 CALM      29.70R VSB 1/4
PORT HOPE        N/A     36  35  96 E6        29.72S WCI  31
PORT HURON     CLOUDY    36  34  93 CALM      29.73R FOG
TRI CITIES     LGT RAIN  36  36 100 NE3       29.74R VSB 3/4
MIDLAND        DRIZZLE   37  36  97 CALM      29.73R
TROY           CLOUDY    38  37  96 CALM      29.73S FOG
SAGINAW HB     LGT RAIN  36  34  93 CALM      29.73R VSB 3/4
$$
MIZ043>046-050>051-056>058-064>065-071>073-077>080-240900-
SOUTHWEST LOWER MICHIGAN

CITY           SKY/WX    TMP DP  RH WIND       PRES   REMARKS
BATTLE CREEK   LGT RAIN  40  39  97 N7        29.74R
BENTON HARBOR  CLOUDY    39  36  89 VRB5      29.78R
BIG RAPIDS     CLOUDY    36  36  98 NW6       29.73R WCI  31
COLDWATER      CLOUDY    40  40 100 N5        29.73R
FREMONT        CLOUDY    37  37  99 N8        29.75R WCI  31
HOLLAND        CLOUDY    38  36  92 NW7       29.76R WCI  33
GRAND RAPIDS   CLOUDY    39  37  92 NW7       29.74R WCI  34
IONIA          LGT RAIN  37  37 100 NW3       29.73R
KALAMAZOO      CLOUDY    39  37  92 N9        29.73R FOG     WCI  33
LUDINGTON      CLOUDY    37  36  99 NW6       29.76S WCI  32
MARSHALL       DRIZZLE   39  38  99 CALM      29.72R
MOUNT PLEASANT LGT RAIN  37  37  99 CALM      29.73S
MUSKEGON       CLOUDY    39  37  92 NW6       29.77R WCI  35
SOUTH HAVEN    CLOUDY    38  37  96 NW7       29.78R WCI  33
$$
MIZ016>042-240900-
NORTHERN LOWER MICHIGAN

CITY           SKY/WX    TMP DP  RH WIND       PRES   REMARKS
ALPENA         LGT RAIN  36  35  96 E5        29.76S WCI  32
BEAVER ISLAND  FOG       32  32 100 NE3       29.76R VSB 1
BELLAIRE       FOG       33  33 100 CALM      29.75R VSB 3/4
CADILLAC       FOG       36  35  96 NW3       29.71S VSB 1
CHARLEVOIX     CLOUDY    35  35 100 CALM      29.77S FOG
FRANKFORT      CLOUDY    38  38 100 CALM      29.76R
GAYLORD        LGT RAIN  35  32  88 NE5       29.72R FOG     WCI  31
GRAYLING       LGT RAIN  34  34  99 CALM      29.73R
HARBOR SPRINGS LGT RAIN  33  33 100 CALM      29.75R
HOUGHTON LAKE  LGT RAIN  34  34 100 NE3       29.73R
MANISTEE       MIX PCPN  37  37 100 NW9       29.76R WCI  30
OSCODA         LGT SNOW  36  36  99 CALM      29.73S
PELLSTON       LGT RAIN  34  32  92 CALM      29.75R VSB 3/4
ROGERS CITY    MIX PCPN  35  34  96 CALM      29.76F
TRAVERSE CITY  CLOUDY    37  36  96 W5        29.73S WCI  33
$$
MIZ007>008-015-240900-
EASTERN UPPER MICHIGAN

CITY           SKY/WX    TMP DP  RH WIND       PRES   REMARKS
KINROSS        LGT RAIN N/A N/A N/A E10       29.76S
MACKINAC ISLAN MIX PCPN  33  33 100 E9        29.75S WCI  25
NEWBERRY       LGT SNOW  32  31  97 N3        29.76R VSB 1
S. S. MARIE    LGT RAIN  34  33  96 E5        29.77R WCI  30
MUNISING         N/A     34  34 100 N3        29.77R
$$
MIZ004>006-011>014-085-240900-
CENTRAL UPPER MICHIGAN

CITY           SKY/WX    TMP DP  RH WIND       PRES   REMARKS
MANISTIQUE     CLOUDY    32  32  99 NW3       29.76S
ESCANABA       CLOUDY    34  34 100 NW3       29.78S
SAWYER-GWINN   CLOUDY    32  32  99 N3        29.77S
$$
MIZ001>003-009>011-084-240900-
WESTERN UPPER MICHIGAN

CITY           SKY/WX    TMP DP  RH WIND       PRES   REMARKS
IRON MOUNTAIN  FOG       34  32  92 NW3       29.76S VSB 1/2
HOUGHTON       FOG       34  32  92 NW5       29.78S VSB 1/4 WCI  30
COPPER HARBOR    N/A     34  34 100 CALM      29.79S
IRONWOOD       CLOUDY    33  33 100 W5        29.81R WCI  29
$$

ABBREVIATIONS USED IN REMARKS
   TC - TEMPERATURE IN CELSIUS
  WCI - WIND CHILL INDEX
   HX - HEAT INDEX
  VSB - VISIBILITY





USA.gov is the U.S. government's official web portal to all federal, state and local government web resources and services.